| time (UTC) | temp F | wind direction | speed MPH | gust MPH | rain 1hr in | rain 24hr in | rain mn in | humidity % | barometer mb |
| 20260902212523 | 71 | 99 | 2.0 | 6.0 | 0.00 | 0.00 | 0.00 | 69 | 1020.0 |
| 20260902212026 | 72 | 131 | 0.0 | 4.0 | 0.00 | 0.00 | 0.00 | 68 | 1020.1 |
| 20260902211543 | 72 | 18 | 0.0 | 2.0 | 0.00 | 0.00 | 0.00 | 67 | 1020.3 |
| 20260902211026 | 72 | 86 | 0.0 | 4.0 | 0.00 | 0.00 | 0.00 | 67 | 1020.6 |
| 20260902210519 | 72 | 100 | 1.0 | 4.0 | 0.00 | 0.00 | 0.00 | 67 | 1020.5 |
| 20260902210042 | 72 | 0 | 0.0 | 7.0 | 0.00 | 0.00 | 0.00 | 66 | 1020.7 |
| 20260902205525 | 72 | 188 | 3.0 | 7.0 | 0.00 | 0.00 | 0.00 | 65 | 1020.6 |
| 20260902205024 | 72 | 86 | 1.0 | 3.0 | 0.00 | 0.00 | 0.00 | 68 | 1020.7 |
| 20260902204549 | 72 | 0 | 0.0 | 2.0 | 0.00 | 0.00 | 0.00 | 66 | 1020.7 |
| 20260902204024 | 73 | 101 | 0.0 | 2.0 | 0.00 | 0.00 | 0.00 | 66 | 1020.6 |
| 20260902203526 | 73 | 39 | 0.0 | 3.0 | 0.00 | 0.00 | 0.00 | 66 | 1020.5 |
| 20260902203045 | 73 | 30 | 1.0 | 3.0 | 0.00 | 0.00 | 0.00 | 67 | 1020.6 |
| 20260902202522 | 73 | 32 | 1.0 | 4.0 | 0.00 | 0.00 | 0.00 | 65 | 1020.6 |
| 20260902202024 | 74 | 24 | 0.0 | 6.0 | 0.00 | 0.00 | 0.00 | 65 | 1020.6 |
| 20260902201542 | 74 | 347 | 1.0 | 8.0 | 0.00 | 0.00 | 0.00 | 64 | 1020.4 |
| 20260902201024 | 74 | 132 | 4.0 | 8.0 | 0.00 | 0.00 | 0.00 | 64 | 1020.5 |
| 20260902200521 | 75 | 153 | 1.0 | 6.0 | 0.00 | 0.00 | 0.00 | 62 | 1020.3 |
| 20260902200045 | 75 | 57 | 3.0 | 6.0 | 0.00 | 0.00 | 0.00 | 62 | 1020.4 |
| 20260902195525 | 76 | 91 | 2.0 | 6.0 | 0.00 | 0.01 | 0.00 | 63 | 1020.5 |
| 20260902195025 | 76 | 307 | 1.0 | 6.0 | 0.00 | 0.01 | 0.00 | 62 | 1020.7 |
| 20260902194544 | 76 | 136 | 1.0 | 5.0 | 0.00 | 0.01 | 0.00 | 63 | 1020.8 |
| 20260902194025 | 75 | 349 | 1.0 | 5.0 | 0.00 | 0.01 | 0.00 | 62 | 1020.7 |
| 20260902193523 | 75 | 45 | 2.0 | 5.0 | 0.00 | 0.01 | 0.00 | 64 | 1020.9 |
| 20260902193042 | 75 | 6 | 1.0 | 4.0 | 0.00 | 0.01 | 0.00 | 63 | 1020.9 |
| 20260902192524 | 75 | 348 | 2.0 | 5.0 | 0.00 | 0.01 | 0.00 | 63 | 1021.0 |
| 20260902192024 | 74 | 89 | 1.0 | 5.0 | 0.00 | 0.01 | 0.00 | 66 | 1021.1 |
| 20260902191549 | 74 | 106 | 1.0 | 8.0 | 0.00 | 0.01 | 0.00 | 67 | 1021.1 |
| 20260902191026 | 74 | 79 | 3.0 | 8.0 | 0.00 | 0.01 | 0.00 | 65 | 1021.1 |
| 20260902190527 | 75 | 113 | 4.0 | 8.0 | 0.00 | 0.01 | 0.00 | 65 | 1021.0 |
| 20260902190046 | 75 | 119 | 1.0 | 8.0 | 0.00 | 0.01 | 0.00 | 66 | 1020.9 |
| 20260902185525 | 75 | 181 | 3.0 | 9.0 | 0.00 | 0.04 | 0.00 | 65 | 1020.8 |
| 20260902185025 | 75 | 60 | 5.0 | 9.0 | 0.00 | 0.04 | 0.00 | 66 | 1020.9 |
| 20260902184541 | 75 | 127 | 3.0 | 8.0 | 0.00 | 0.04 | 0.00 | 64 | 1021.0 |
| 20260902184024 | 75 | 172 | 4.0 | 8.0 | 0.00 | 0.04 | 0.00 | 63 | 1020.9 |
| 20260902183524 | 75 | 9 | 2.0 | 7.0 | 0.00 | 0.04 | 0.00 | 62 | 1020.8 |
| 20260902183045 | 75 | 234 | 2.0 | 7.0 | 0.00 | 0.04 | 0.00 | 64 | 1020.9 |
| 20260902182523 | 75 | 214 | 2.0 | 5.0 | 0.00 | 0.04 | 0.00 | 62 | 1020.9 |
| 20260902182029 | 75 | 304 | 2.0 | 7.0 | 0.00 | 0.04 | 0.00 | 63 | 1020.9 |
| 20260902181553 | 76 | 110 | 2.0 | 7.0 | 0.00 | 0.04 | 0.00 | 63 | 1020.8 |
| 20260902181023 | 75 | 77 | 2.0 | 7.0 | 0.00 | 0.04 | 0.00 | 63 | 1020.9 |
| 20260902180523 | 75 | 176 | 2.0 | 7.0 | 0.00 | 0.04 | 0.00 | 64 | 1020.9 |
| 20260902180054 | 74 | 341 | 1.0 | 7.0 | 0.00 | 0.04 | 0.00 | 66 | 1020.8 |
| 20260902175524 | 74 | 123 | 2.0 | 7.0 | 0.00 | 0.05 | 0.00 | 67 | 1020.9 |
| 20260902175025 | 74 | 155 | 3.0 | 7.0 | 0.00 | 0.05 | 0.00 | 68 | 1021.0 |
| 20260902174543 | 74 | 101 | 1.0 | 8.0 | 0.00 | 0.05 | 0.00 | 66 | 1021.1 |
| 20260902174024 | 74 | 98 | 4.0 | 8.0 | 0.00 | 0.05 | 0.00 | 66 | 1021.2 |
| 20260902173524 | 74 | 136 | 2.0 | 8.0 | 0.00 | 0.05 | 0.00 | 65 | 1021.0 |
| 20260902173046 | 75 | 86 | 2.0 | 5.0 | 0.00 | 0.05 | 0.00 | 62 | 1021.1 |
| 20260902172526 | 75 | 57 | 2.0 | 5.0 | 0.00 | 0.05 | 0.00 | 62 | 1021.4 |
| 20260902172024 | 75 | 53 | 1.0 | 6.0 | 0.00 | 0.05 | 0.00 | 63 | 1021.3 |
| 20260902171558 | 74 | 33 | 2.0 | 6.0 | 0.00 | 0.05 | 0.00 | 61 | 1021.4 |
| 20260902171024 | 75 | 347 | 2.0 | 6.0 | 0.00 | 0.05 | 0.00 | 59 | 1021.5 |
| 20260902170526 | 75 | 8 | 1.0 | 5.0 | 0.00 | 0.05 | 0.00 | 61 | 1021.5 |
| 20260902170047 | 75 | 41 | 2.0 | 5.0 | 0.00 | 0.05 | 0.00 | 61 | 1021.3 |
| 20260902165525 | 74 | 352 | 1.0 | 6.0 | 0.00 | 0.05 | 0.00 | 63 | 1021.3 |
| 20260902165030 | 74 | 110 | 2.0 | 9.0 | 0.00 | 0.05 | 0.00 | 63 | 1021.4 |
| 20260902164545 | 74 | 214 | 3.0 | 9.0 | 0.00 | 0.05 | 0.00 | 62 | 1021.6 |
| 20260902164024 | 75 | 111 | 2.0 | 7.0 | 0.00 | 0.05 | 0.00 | 63 | 1021.4 |
| 20260902163524 | 74 | 186 | 2.0 | 5.0 | 0.00 | 0.05 | 0.00 | 64 | 1021.4 |
| 20260902163042 | 74 | 30 | 2.0 | 5.0 | 0.00 | 0.05 | 0.00 | 64 | 1021.4 |
| 20260902162524 | 74 | 172 | 2.0 | 6.0 | 0.00 | 0.05 | 0.00 | 64 | 1021.4 |
| 20260902162024 | 74 | 123 | 1.0 | 6.0 | 0.00 | 0.05 | 0.00 | 66 | 1021.5 |
| 20260902161557 | 73 | 108 | 1.0 | 6.0 | 0.00 | 0.05 | 0.00 | 68 | 1021.5 |
| 20260902161025 | 73 | 140 | 1.0 | 7.0 | 0.00 | 0.05 | 0.00 | 67 | 1021.5 |
| 20260902160526 | 72 | 47 | 4.0 | 9.0 | 0.00 | 0.05 | 0.00 | 67 | 1021.6 |
| 20260902160049 | 72 | 60 | 4.0 | 9.0 | 0.00 | 0.05 | 0.00 | 65 | 1021.8 |
| 20260902155525 | 72 | 65 | 5.0 | 9.0 | 0.00 | 0.05 | 0.00 | 66 | 1021.9 |
| 20260902155027 | 72 | 118 | 3.0 | 10.0 | 0.00 | 0.05 | 0.00 | 66 | 1022.0 |
| 20260902154544 | 72 | 143 | 3.0 | 10.0 | 0.00 | 0.05 | 0.00 | 68 | 1022.0 |
| 20260902154024 | 73 | 93 | 4.0 | 8.0 | 0.00 | 0.05 | 0.00 | 66 | 1021.9 |
| 20260902153526 | 73 | 107 | 2.0 | 7.0 | 0.00 | 0.05 | 0.00 | 68 | 1022.0 |
| 20260902153044 | 72 | 107 | 2.0 | 9.0 | 0.00 | 0.05 | 0.00 | 71 | 1021.9 |
| 20260902152526 | 72 | 119 | 4.0 | 9.0 | 0.00 | 0.05 | 0.00 | 70 | 1021.9 |
| 20260902152024 | 72 | 71 | 4.0 | 11.0 | 0.00 | 0.05 | 0.00 | 68 | 1021.9 |
| 20260902151541 | 72 | 155 | 3.0 | 11.0 | 0.00 | 0.05 | 0.00 | 71 | 1021.9 |
| 20260902151023 | 71 | 137 | 4.0 | 8.0 | 0.00 | 0.05 | 0.00 | 74 | 1022.0 |
| 20260902150527 | 71 | 140 | 1.0 | 6.0 | 0.00 | 0.05 | 0.00 | 75 | 1021.9 |
| 20260902150045 | 71 | 127 | 2.0 | 7.0 | 0.00 | 0.05 | 0.00 | 76 | 1021.9 |
| 20260902145524 | 70 | 113 | 4.0 | 7.0 | 0.00 | 0.05 | 0.00 | 76 | 1021.9 |
| 20260902145025 | 70 | 51 | 2.0 | 5.0 | 0.00 | 0.05 | 0.00 | 76 | 1021.8 |
| 20260902144543 | 70 | 33 | 1.0 | 5.0 | 0.00 | 0.05 | 0.00 | 76 | 1021.9 |
| 20260902144023 | 70 | 136 | 1.0 | 6.0 | 0.00 | 0.05 | 0.00 | 77 | 1021.7 |
| 20260902143522 | 70 | 0 | 0.0 | 6.0 | 0.00 | 0.05 | 0.00 | 77 | 1021.7 |
| 20260902143044 | 70 | 344 | 1.0 | 7.0 | 0.00 | 0.05 | 0.00 | 77 | 1021.6 |
| 20260902142520 | 70 | 13 | 2.0 | 7.0 | 0.00 | 0.05 | 0.00 | 77 | 1021.6 |
| 20260902142024 | 70 | 84 | 2.0 | 7.0 | 0.00 | 0.05 | 0.00 | 79 | 1021.5 |
| 20260902141540 | 70 | 12 | 2.0 | 6.0 | 0.00 | 0.05 | 0.00 | 80 | 1021.3 |
| 20260902141025 | 69 | 43 | 1.0 | 6.0 | 0.00 | 0.05 | 0.00 | 79 | 1021.2 |
| 20260902140524 | 69 | 99 | 1.0 | 4.0 | 0.00 | 0.05 | 0.00 | 81 | 1021.1 |
| 20260902140045 | 69 | 6 | 0.0 | 2.0 | 0.00 | 0.05 | 0.00 | 81 | 1021.3 |
| 20260902135521 | 68 | 125 | 0.0 | 2.0 | 0.00 | 0.05 | 0.00 | 82 | 1021.1 |
| 20260902135018 | 68 | 0 | 0.0 | 3.0 | 0.00 | 0.05 | 0.00 | 82 | 1021.0 |
| 20260902134546 | 68 | 326 | 1.0 | 5.0 | 0.00 | 0.05 | 0.00 | 82 | 1020.8 |
| 20260902134022 | 68 | 38 | 2.0 | 5.0 | 0.00 | 0.05 | 0.00 | 81 | 1020.9 |
| 20260902133524 | 68 | 25 | 1.0 | 4.0 | 0.00 | 0.05 | 0.00 | 85 | 1020.9 |
| 20260902133045 | 67 | 156 | 0.0 | 2.0 | 0.00 | 0.05 | 0.00 | 86 | 1020.8 |
| 20260902132528 | 67 | 41 | 1.0 | 5.0 | 0.00 | 0.05 | 0.00 | 86 | 1021.0 |
| 20260902132023 | 67 | 121 | 1.0 | 5.0 | 0.00 | 0.05 | 0.00 | 86 | 1021.1 |
| 20260902131544 | 67 | 0 | 1.0 | 4.0 | 0.00 | 0.05 | 0.00 | 87 | 1021.2 |
| 20260902131021 | 66 | 356 | 0.0 | 3.0 | 0.00 | 0.05 | 0.00 | 88 | 1021.2 |
| 20260902130519 | 66 | 0 | 0.0 | 3.0 | 0.00 | 0.05 | 0.00 | 90 | 1021.2 |
| 20260902130044 | 66 | 0 | 0.0 | 4.0 | 0.00 | 0.05 | 0.00 | 90 | 1021.2 |
| 20260902125526 | 65 | 15 | 1.0 | 4.0 | 0.00 | 0.05 | 0.00 | 91 | 1021.3 |
| 20260902125025 | 65 | 0 | 1.0 | 3.0 | 0.00 | 0.05 | 0.00 | 92 | 1021.4 |
| 20260902124545 | 65 | 0 | 0.0 | 3.0 | 0.00 | 0.05 | 0.00 | 93 | 1021.5 |
| 20260902124023 | 65 | 0 | 1.0 | 3.0 | 0.00 | 0.05 | 0.00 | 94 | 1021.5 |
| 20260902123524 | 65 | 0 | 0.0 | 2.0 | 0.00 | 0.05 | 0.00 | 95 | 1021.6 |
| 20260902123045 | 65 | 0 | 0.0 | 2.0 | 0.00 | 0.05 | 0.00 | 96 | 1021.4 |
| 20260902122524 | 64 | 0 | 0.0 | 2.0 | 0.00 | 0.05 | 0.00 | 96 | 1021.4 |
| 20260902122018 | 64 | 25 | 0.0 | 1.0 | 0.00 | 0.05 | 0.00 | 97 | 1021.5 |
| 20260902121541 | 64 | 0 | 0.0 | 2.0 | 0.00 | 0.05 | 0.00 | 97 | 1021.7 |
| 20260902121018 | 64 | 0 | 0.0 | 2.0 | 0.00 | 0.05 | 0.00 | 97 | 1021.7 |
| 20260902120525 | 63 | 63 | 0.0 | 1.0 | 0.00 | 0.05 | 0.00 | 97 | 1021.7 |
| 20260902120048 | 63 | 96 | 0.0 | 1.0 | 0.00 | 0.05 | 0.00 | 97 | 1021.7 |
| 20260902115524 | 62 | 0 | 0.0 | 1.0 | 0.00 | 0.05 | 0.00 | 97 | 1021.8 |
| 20260902115025 | 62 | 0 | 0.0 | 1.0 | 0.00 | 0.05 | 0.00 | 98 | 1021.9 |
| 20260902114605 | 62 | 0 | 0.0 | 0.0 | 0.00 | 0.05 | 0.00 | 98 | 1021.8 |
| 20260902114027 | 61 | 0 | 0.0 | 0.0 | 0.00 | 0.05 | 0.00 | 97 | 1021.8 |
| 20260902113523 | 60 | 0 | 0.0 | 0.0 | 0.00 | 0.05 | 0.00 | 97 | 1021.7 |
| 20260902113053 | 60 | 0 | 0.0 | 0.0 | 0.00 | 0.05 | 0.00 | 97 | 1021.7 |
| 20260902112520 | 60 | 0 | 0.0 | 0.0 | 0.00 | 0.05 | 0.00 | 97 | 1021.6 |
| 20260902112022 | 60 | 0 | 0.0 | 0.0 | 0.00 | 0.05 | 0.00 | 97 | 1021.5 |
| 20260902111551 | 59 | 0 | 0.0 | 0.0 | 0.00 | 0.05 | 0.00 | 97 | 1021.5 |
| 20260902111025 | 59 | 0 | 0.0 | 0.0 | 0.00 | 0.05 | 0.00 | 97 | 1021.6 |
| 20260902110525 | 59 | 0 | 0.0 | 1.0 | 0.00 | 0.05 | 0.00 | 97 | 1021.4 |
| 20260902110047 | 59 | 0 | 0.0 | 1.0 | 0.00 | 0.05 | 0.00 | 97 | 1021.2 |
| 20260902105527 | 59 | 0 | 0.0 | 0.0 | 0.00 | 0.05 | 0.00 | 96 | 1021.1 |
| 20260902105025 | 59 | 0 | 0.0 | 0.0 | 0.00 | 0.05 | 0.00 | 96 | 1021.0 |
| 20260902104546 | 59 | 0 | 0.0 | 0.0 | 0.00 | 0.05 | 0.00 | 96 | 1021.0 |
| 20260902104025 | 58 | 0 | 0.0 | 0.0 | 0.00 | 0.05 | 0.00 | 96 | 1021.0 |
| 20260902103524 | 58 | 0 | 0.0 | 0.0 | 0.00 | 0.05 | 0.00 | 96 | 1020.8 |
| 20260902103045 | 58 | 0 | 0.0 | 0.0 | 0.00 | 0.05 | 0.00 | 96 | 1020.9 |
| 20260902102525 | 58 | 0 | 0.0 | 0.0 | 0.00 | 0.05 | 0.00 | 96 | 1020.8 |
| 20260902102026 | 58 | 0 | 0.0 | 0.0 | 0.00 | 0.05 | 0.00 | 96 | 1020.6 |
| 20260902101540 | 58 | 0 | 0.0 | 0.0 | 0.00 | 0.05 | 0.00 | 96 | 1020.5 |
| 20260902101028 | 58 | 0 | 0.0 | 0.0 | 0.00 | 0.05 | 0.00 | 96 | 1020.4 |
| 20260902100524 | 58 | 0 | 0.0 | 0.0 | 0.00 | 0.05 | 0.00 | 96 | 1020.3 |
| 20260902100046 | 58 | 0 | 0.0 | 0.0 | 0.00 | 0.05 | 0.00 | 96 | 1020.3 |
| 20260902095523 | 59 | 0 | 0.0 | 0.0 | 0.00 | 0.05 | 0.00 | 96 | 1020.4 |
| 20260902095026 | 59 | 0 | 0.0 | 0.0 | 0.00 | 0.05 | 0.00 | 96 | 1020.4 |
| 20260902094545 | 59 | 0 | 0.0 | 0.0 | 0.00 | 0.05 | 0.00 | 96 | 1020.3 |
| 20260902094022 | 59 | 0 | 0.0 | 0.0 | 0.00 | 0.05 | 0.00 | 96 | 1020.2 |
| 20260902093524 | 59 | 0 | 0.0 | 0.0 | 0.00 | 0.05 | 0.00 | 96 | 1020.2 |
| 20260902093041 | 59 | 0 | 0.0 | 0.0 | 0.00 | 0.05 | 0.00 | 96 | 1020.3 |
| 20260902092524 | 59 | 0 | 0.0 | 0.0 | 0.00 | 0.05 | 0.00 | 96 | 1020.3 |
| 20260902092025 | 59 | 0 | 0.0 | 0.0 | 0.00 | 0.05 | 0.00 | 96 | 1020.4 |
| 20260902091553 | 59 | 0 | 0.0 | 0.0 | 0.00 | 0.05 | 0.00 | 96 | 1020.4 |
| 20260902091025 | 59 | 0 | 0.0 | 0.0 | 0.00 | 0.05 | 0.00 | 96 | 1020.4 |
| 20260902090523 | 59 | 0 | 0.0 | 0.0 | 0.00 | 0.05 | 0.00 | 96 | 1020.3 |
| 20260902090050 | 59 | 0 | 0.0 | 0.0 | 0.00 | 0.05 | 0.00 | 96 | 1020.2 |
| 20260902085518 | 59 | 0 | 0.0 | 0.0 | 0.00 | 0.05 | 0.00 | 96 | 1020.3 |
| 20260902085021 | 59 | 0 | 0.0 | 0.0 | 0.00 | 0.05 | 0.00 | 96 | 1020.2 |
| 20260902084542 | 59 | 0 | 0.0 | 0.0 | 0.00 | 0.05 | 0.00 | 96 | 1020.2 |
| 20260902084023 | 59 | 0 | 0.0 | 0.0 | 0.00 | 0.05 | 0.00 | 96 | 1020.1 |
| 20260902083523 | 60 | 0 | 0.0 | 0.0 | 0.00 | 0.05 | 0.00 | 95 | 1020.1 |
| 20260902083046 | 60 | 0 | 0.0 | 0.0 | 0.00 | 0.05 | 0.00 | 95 | 1020.1 |
| 20260902082524 | 60 | 0 | 0.0 | 0.0 | 0.00 | 0.05 | 0.00 | 96 | 1020.1 |
| 20260902082024 | 60 | 0 | 0.0 | 0.0 | 0.00 | 0.05 | 0.00 | 96 | 1020.0 |
| 20260902081544 | 60 | 0 | 0.0 | 0.0 | 0.00 | 0.05 | 0.00 | 96 | 1020.1 |
| 20260902081023 | 60 | 0 | 0.0 | 0.0 | 0.00 | 0.05 | 0.00 | 96 | 1020.1 |
| 20260902080524 | 60 | 0 | 0.0 | 0.0 | 0.00 | 0.05 | 0.00 | 96 | 1020.1 |
| 20260902080042 | 60 | 0 | 0.0 | 0.0 | 0.00 | 0.05 | 0.00 | 96 | 1020.2 |
| 20260902075521 | 60 | 0 | 0.0 | 0.0 | 0.00 | 0.05 | 0.00 | 96 | 1020.2 |
| 20260902075024 | 60 | 0 | 0.0 | 0.0 | 0.00 | 0.05 | 0.00 | 96 | 1020.3 |
| 20260902074555 | 60 | 0 | 0.0 | 0.0 | 0.00 | 0.05 | 0.00 | 96 | 1020.4 |
| 20260902074025 | 60 | 0 | 0.0 | 0.0 | 0.00 | 0.05 | 0.00 | 96 | 1020.4 |
| 20260902073524 | 60 | 0 | 0.0 | 0.0 | 0.00 | 0.05 | 0.00 | 96 | 1020.2 |
| 20260902073044 | 60 | 0 | 0.0 | 0.0 | 0.00 | 0.05 | 0.00 | 96 | 1020.3 |
| 20260902072524 | 60 | 0 | 0.0 | 0.0 | 0.00 | 0.05 | 0.00 | 96 | 1020.1 |
| 20260902072026 | 60 | 0 | 0.0 | 0.0 | 0.00 | 0.05 | 0.00 | 96 | 1020.0 |
| 20260902071543 | 60 | 0 | 0.0 | 0.0 | 0.00 | 0.05 | 0.00 | 96 | 1019.9 |
| 20260902071025 | 60 | 0 | 0.0 | 0.0 | 0.00 | 0.05 | 0.00 | 96 | 1019.9 |
| 20260902070524 | 60 | 0 | 0.0 | 0.0 | 0.00 | 0.05 | 0.00 | 96 | 1019.9 |
| 20260902070041 | 60 | 0 | 0.0 | 0.0 | 0.00 | 0.05 | 0.00 | 96 | 1019.9 |
| 20260902065521 | 60 | 0 | 0.0 | 0.0 | 0.00 | 0.05 | 0.00 | 96 | 1020.0 |
| 20260902065024 | 60 | 0 | 0.0 | 0.0 | 0.00 | 0.05 | 0.00 | 96 | 1020.1 |
| 20260902064541 | 60 | 0 | 0.0 | 0.0 | 0.00 | 0.05 | 0.00 | 96 | 1020.0 |
| 20260902064023 | 60 | 0 | 0.0 | 0.0 | 0.00 | 0.05 | 0.00 | 96 | 1020.0 |
| 20260902063524 | 60 | 0 | 0.0 | 0.0 | 0.00 | 0.05 | 0.00 | 96 | 1019.9 |
| 20260902063043 | 60 | 0 | 0.0 | 0.0 | 0.00 | 0.05 | 0.00 | 96 | 1019.9 |
| 20260902062525 | 60 | 0 | 0.0 | 0.0 | 0.00 | 0.05 | 0.00 | 96 | 1020.1 |
| 20260902062019 | 60 | 0 | 0.0 | 0.0 | 0.00 | 0.05 | 0.00 | 96 | 1020.1 |
| 20260902061548 | 60 | 0 | 0.0 | 0.0 | 0.00 | 0.05 | 0.00 | 96 | 1020.1 |
| 20260902061024 | 60 | 0 | 0.0 | 0.0 | 0.00 | 0.05 | 0.00 | 96 | 1020.1 |
| 20260902060523 | 60 | 0 | 0.0 | 0.0 | 0.00 | 0.05 | 0.00 | 96 | 1020.1 |
| 20260902060056 | 60 | 0 | 0.0 | 0.0 | 0.00 | 0.05 | 0.00 | 96 | 1020.1 |
| 20260902055526 | 60 | 0 | 0.0 | 0.0 | 0.00 | 0.05 | 0.00 | 96 | 1020.2 |
| 20260902055025 | 60 | 0 | 0.0 | 0.0 | 0.00 | 0.05 | 0.00 | 96 | 1020.1 |
| 20260902054544 | 60 | 0 | 0.0 | 0.0 | 0.00 | 0.05 | 0.00 | 95 | 1020.1 |
| 20260902054026 | 60 | 0 | 0.0 | 0.0 | 0.00 | 0.05 | 0.00 | 95 | 1020.1 |
| 20260902053519 | 60 | 0 | 0.0 | 0.0 | 0.00 | 0.05 | 0.00 | 95 | 1019.9 |
| 20260902053057 | 60 | 0 | 0.0 | 0.0 | 0.00 | 0.05 | 0.00 | 96 | 1020.0 |
| 20260902052524 | 60 | 0 | 0.0 | 0.0 | 0.00 | 0.05 | 0.00 | 96 | 1020.1 |
| 20260902052026 | 60 | 0 | 0.0 | 1.0 | 0.00 | 0.05 | 0.00 | 95 | 1020.0 |
| 20260902051543 | 60 | 0 | 0.0 | 1.0 | 0.00 | 0.05 | 0.00 | 95 | 1020.0 |
| 20260902051024 | 60 | 0 | 0.0 | 0.0 | 0.00 | 0.05 | 0.00 | 95 | 1020.1 |
| 20260902050525 | 60 | 0 | 0.0 | 0.0 | 0.00 | 0.05 | 0.00 | 95 | 1020.2 |
| 20260902050047 | 60 | 0 | 0.0 | 0.0 | 0.00 | 0.05 | 0.00 | 95 | 1020.2 |
| 20260902045523 | 60 | 0 | 0.0 | 0.0 | 0.00 | 0.05 | 0.00 | 95 | 1019.9 |
| 20260902045026 | 60 | 0 | 0.0 | 0.0 | 0.00 | 0.05 | 0.00 | 95 | 1019.9 |
| 20260902044546 | 61 | 0 | 0.0 | 0.0 | 0.00 | 0.05 | 0.00 | 95 | 1019.8 |
| 20260902044022 | 61 | 0 | 0.0 | 0.0 | 0.00 | 0.05 | 0.00 | 95 | 1019.9 |
| 20260902043519 | 61 | 0 | 0.0 | 1.0 | 0.00 | 0.05 | 0.00 | 95 | 1019.7 |
| 20260902043040 | 61 | 0 | 0.0 | 1.0 | 0.00 | 0.05 | 0.00 | 95 | 1019.4 |
| 20260902042525 | 61 | 0 | 0.0 | 0.0 | 0.00 | 0.05 | 0.00 | 95 | 1019.3 |
| 20260902042024 | 61 | 0 | 0.0 | 1.0 | 0.00 | 0.05 | 0.00 | 95 | 1019.2 |
| 20260902041545 | 61 | 0 | 0.0 | 1.0 | 0.00 | 0.05 | 0.00 | 95 | 1019.4 |
| 20260902041024 | 61 | 0 | 0.0 | 0.0 | 0.00 | 0.05 | 0.00 | 95 | 1019.3 |
| 20260902040524 | 61 | 0 | 0.0 | 0.0 | 0.00 | 0.05 | 0.00 | 95 | 1019.3 |
| 20260902040044 | 61 | 0 | 0.0 | 0.0 | 0.00 | 0.05 | 0.00 | 95 | 1019.1 |
| 20260902035523 | 61 | 0 | 0.0 | 0.0 | 0.00 | 0.05 | 0.05 | 95 | 1019.0 |
| 20260902035023 | 61 | 0 | 0.0 | 0.0 | 0.00 | 0.05 | 0.05 | 95 | 1019.2 |
| 20260902034558 | 61 | 0 | 0.0 | 0.0 | 0.00 | 0.05 | 0.05 | 95 | 1019.2 |
| 20260902034018 | 61 | 0 | 0.0 | 0.0 | 0.00 | 0.05 | 0.05 | 95 | 1019.1 |
| 20260902033518 | 61 | 0 | 0.0 | 0.0 | 0.00 | 0.05 | 0.05 | 95 | 1019.2 |
| 20260902033046 | 61 | 0 | 0.0 | 0.0 | 0.00 | 0.05 | 0.05 | 95 | 1019.0 |
| 20260902032524 | 61 | 0 | 0.0 | 0.0 | 0.00 | 0.05 | 0.05 | 95 | 1018.8 |
| 20260902032024 | 61 | 0 | 0.0 | 0.0 | 0.00 | 0.05 | 0.05 | 95 | 1018.9 |
| 20260902031550 | 61 | 0 | 0.0 | 0.0 | 0.00 | 0.05 | 0.05 | 95 | 1018.9 |
| 20260902031024 | 61 | 0 | 0.0 | 0.0 | 0.00 | 0.05 | 0.05 | 95 | 1018.9 |
| 20260902030524 | 61 | 0 | 0.0 | 0.0 | 0.00 | 0.05 | 0.05 | 95 | 1018.9 |
| 20260902030044 | 61 | 0 | 0.0 | 0.0 | 0.00 | 0.05 | 0.05 | 95 | 1018.9 |
| 20260902025520 | 61 | 0 | 0.0 | 0.0 | 0.00 | 0.05 | 0.05 | 95 | 1018.9 |
| 20260902025021 | 61 | 0 | 0.0 | 0.0 | 0.00 | 0.05 | 0.05 | 95 | 1019.2 |
| 20260902024544 | 60 | 0 | 0.0 | 0.0 | 0.00 | 0.05 | 0.05 | 95 | 1019.1 |
| 20260902024025 | 60 | 0 | 0.0 | 0.0 | 0.00 | 0.05 | 0.05 | 95 | 1019.1 |
| 20260902023524 | 60 | 0 | 0.0 | 0.0 | 0.00 | 0.05 | 0.05 | 95 | 1019.0 |
| 20260902023049 | 61 | 0 | 0.0 | 0.0 | 0.00 | 0.05 | 0.05 | 95 | 1018.9 |
| 20260902022524 | 60 | 0 | 0.0 | 0.0 | 0.00 | 0.05 | 0.05 | 95 | 1019.0 |
| 20260902022023 | 61 | 0 | 0.0 | 0.0 | 0.00 | 0.05 | 0.05 | 94 | 1018.9 |
| 20260902021543 | 61 | 0 | 0.0 | 0.0 | 0.00 | 0.05 | 0.05 | 94 | 1018.8 |
| 20260902021026 | 61 | 0 | 0.0 | 0.0 | 0.00 | 0.05 | 0.05 | 94 | 1018.7 |
| 20260902020519 | 61 | 0 | 0.0 | 0.0 | 0.00 | 0.05 | 0.05 | 95 | 1018.9 |
| 20260902020052 | 61 | 0 | 0.0 | 0.0 | 0.00 | 0.05 | 0.05 | 95 | 1018.9 |
| 20260902015523 | 61 | 0 | 0.0 | 0.0 | 0.00 | 0.05 | 0.05 | 94 | 1018.9 |
| 20260902015024 | 61 | 0 | 0.0 | 0.0 | 0.00 | 0.05 | 0.05 | 94 | 1019.0 |
| 20260902014545 | 61 | 0 | 0.0 | 0.0 | 0.00 | 0.05 | 0.05 | 94 | 1019.0 |
| 20260902014025 | 61 | 0 | 0.0 | 0.0 | 0.00 | 0.05 | 0.05 | 94 | 1018.9 |
| 20260902013523 | 61 | 0 | 0.0 | 0.0 | 0.00 | 0.05 | 0.05 | 94 | 1018.8 |
| 20260902013044 | 61 | 0 | 0.0 | 0.0 | 0.00 | 0.05 | 0.05 | 94 | 1018.5 |
| 20260902012525 | 61 | 0 | 0.0 | 0.0 | 0.00 | 0.05 | 0.05 | 94 | 1018.5 |
| 20260902012024 | 61 | 0 | 0.0 | 0.0 | 0.00 | 0.05 | 0.05 | 94 | 1018.6 |
| 20260902011543 | 61 | 0 | 0.0 | 0.0 | 0.00 | 0.05 | 0.05 | 94 | 1018.7 |
| 20260902011021 | 61 | 0 | 0.0 | 0.0 | 0.00 | 0.05 | 0.05 | 94 | 1018.7 |
| 20260902010522 | 61 | 0 | 0.0 | 0.0 | 0.00 | 0.05 | 0.05 | 94 | 1018.8 |
| 20260902010040 | 61 | 0 | 0.0 | 0.0 | 0.00 | 0.05 | 0.05 | 94 | 1018.9 |
| 20260902005525 | 61 | 0 | 0.0 | 0.0 | 0.00 | 0.05 | 0.05 | 94 | 1018.8 |
| 20260902005024 | 62 | 0 | 0.0 | 0.0 | 0.00 | 0.05 | 0.05 | 94 | 1018.6 |
| 20260902004546 | 62 | 0 | 0.0 | 0.0 | 0.00 | 0.05 | 0.05 | 94 | 1018.5 |
| 20260902004026 | 62 | 0 | 0.0 | 0.0 | 0.00 | 0.05 | 0.05 | 94 | 1018.5 |
| 20260902003524 | 61 | 0 | 0.0 | 0.0 | 0.00 | 0.05 | 0.05 | 94 | 1018.5 |
| 20260902003046 | 62 | 0 | 0.0 | 0.0 | 0.00 | 0.05 | 0.05 | 93 | 1018.6 |
| 20260902002520 | 62 | 0 | 0.0 | 0.0 | 0.00 | 0.05 | 0.05 | 93 | 1018.6 |
| 20260902002022 | 62 | 0 | 0.0 | 0.0 | 0.00 | 0.05 | 0.05 | 93 | 1018.5 |
| 20260902001552 | 62 | 0 | 0.0 | 0.0 | 0.00 | 0.05 | 0.05 | 93 | 1018.6 |
| 20260902001024 | 62 | 0 | 0.0 | 0.0 | 0.00 | 0.05 | 0.05 | 93 | 1018.6 |
| 20260902000526 | 62 | 0 | 0.0 | 0.0 | 0.00 | 0.05 | 0.05 | 93 | 1018.6 |
| 20260902000046 | 62 | 0 | 0.0 | 0.0 | 0.00 | 0.05 | 0.05 | 93 | 1018.6 |
| 20260901235525 | 62 | 0 | 0.0 | 0.0 | 0.00 | 0.05 | 0.05 | 93 | 1018.4 |
| 20260901235026 | 62 | 0 | 0.0 | 0.0 | 0.00 | 0.05 | 0.05 | 93 | 1018.4 |
| 20260901234548 | 62 | 0 | 0.0 | 1.0 | 0.00 | 0.05 | 0.05 | 93 | 1018.2 |
| 20260901234025 | 62 | 118 | 0.0 | 1.0 | 0.00 | 0.05 | 0.05 | 93 | 1018.1 |
| 20260901233519 | 62 | 0 | 0.0 | 0.0 | 0.00 | 0.05 | 0.05 | 93 | 1018.2 |
| 20260901233056 | 62 | 0 | 0.0 | 0.0 | 0.00 | 0.05 | 0.05 | 93 | 1018.2 |
| 20260901232524 | 62 | 0 | 0.0 | 0.0 | 0.00 | 0.05 | 0.05 | 93 | 1018.2 |
| 20260901232026 | 62 | 0 | 0.0 | 0.0 | 0.00 | 0.05 | 0.05 | 93 | 1018.2 |
| 20260901231549 | 62 | 0 | 0.0 | 0.0 | 0.00 | 0.05 | 0.05 | 93 | 1018.2 |
| 20260901231024 | 62 | 0 | 0.0 | 0.0 | 0.00 | 0.05 | 0.05 | 93 | 1018.2 |
| 20260901230526 | 62 | 0 | 0.0 | 0.0 | 0.00 | 0.05 | 0.05 | 93 | 1018.1 |
| 20260901230045 | 62 | 0 | 0.0 | 1.0 | 0.00 | 0.05 | 0.05 | 93 | 1018.0 |
| 20260901225524 | 62 | 0 | 0.0 | 1.0 | 0.00 | 0.05 | 0.05 | 93 | 1017.9 |
| 20260901225027 | 62 | 0 | 0.0 | 0.0 | 0.00 | 0.05 | 0.05 | 93 | 1018.0 |
| 20260901224542 | 62 | 0 | 0.0 | 1.0 | 0.00 | 0.05 | 0.05 | 93 | 1018.1 |
| 20260901224021 | 62 | 0 | 0.0 | 1.0 | 0.00 | 0.05 | 0.05 | 93 | 1017.9 |
| 20260901223523 | 62 | 0 | 0.0 | 2.0 | 0.00 | 0.05 | 0.05 | 92 | 1017.8 |
| 20260901223047 | 62 | 0 | 0.0 | 2.0 | 0.00 | 0.05 | 0.05 | 92 | 1017.9 |
| 20260901222525 | 62 | 128 | 0.0 | 3.0 | 0.00 | 0.05 | 0.05 | 92 | 1018.1 |
| 20260901222025 | 62 | 108 | 1.0 | 3.0 | 0.00 | 0.05 | 0.05 | 92 | 1018.1 |
| 20260901221543 | 62 | 108 | 0.0 | 2.0 | 0.00 | 0.05 | 0.05 | 92 | 1018.2 |
| 20260901221024 | 62 | 0 | 0.0 | 3.0 | 0.00 | 0.05 | 0.05 | 92 | 1018.3 |
| 20260901220525 | 62 | 118 | 2.0 | 3.0 | 0.00 | 0.05 | 0.05 | 92 | 1018.3 |
| 20260901220107 | 62 | 134 | 0.0 | 2.0 | 0.00 | 0.05 | 0.05 | 92 | 1018.4 |
| 20260901215525 | 62 | 124 | 0.0 | 2.0 | 0.00 | 0.05 | 0.05 | 92 | 1018.5 |
| 20260901215026 | 62 | 86 | 1.0 | 2.0 | 0.00 | 0.05 | 0.05 | 91 | 1018.4 |
| 20260901214545 | 62 | 0 | 1.0 | 2.0 | 0.00 | 0.05 | 0.05 | 91 | 1018.5 |
| 20260901214024 | 62 | 83 | 0.0 | 5.0 | 0.00 | 0.05 | 0.05 | 91 | 1018.3 |
| 20260901213527 | 62 | 109 | 2.0 | 5.0 | 0.00 | 0.05 | 0.05 | 91 | 1018.3 |
| 20260901213046 | 62 | 128 | 1.0 | 2.0 | 0.00 | 0.05 | 0.05 | 91 | 1018.4 |